Regional Weather Roundup
Issued by NWS Albany, NY

Home | Current Version | Previous Version | Text Only | Print | Product List | Glossary On
Versions: 1 2 3 4 5 6 7 8 9 10 11 12 13 14 15 16 17 18 19 20 21 22 23 24 25 26 27 28
000
ASUS41 KALY 251910
RWRALY

NEW YORK STATE HOURLY WEATHER ROUNDUP
NATIONAL WEATHER SERVICE ALBANY NY
200 PM EST SAT FEB 25 2017

NOTE: "FAIR" INDICATES FEW OR NO CLOUDS BELOW 12,000 FEET WITH NO
SIGNIFICANT WEATHER AND/OR NO OBSTRUCTIONS TO VISIBILITY.

NYZ032-033-038>043-046>054-057>066-NYZ062>081-082-084-252000-
EAST


CITY           SKY/WX    TMP DP  RH WIND       PRES   REMARKS
ALBANY         PTSUNNY   68  51  54 S21G36    29.50F
GLENS FALLS    MOSUNNY   69  50  50 S16G33    29.47F
POUGHKEEPSIE   CLOUDY    63  53  70 S15       29.57F
NEWBURGH       PTSUNNY   64  57  77 S17G29    29.59F
MONTGOMERY     PTSUNNY   69  55  60 SE21G30   29.52F
WHITE PLAINS   PTSUNNY   62  54  74 SE13      29.59F
ISLIP          PTSUNNY   62  55  77 S17G23    29.61F
NEW YORK CITY  PTSUNNY   63  55  75 S22       29.59F
CENTRAL PARK   CLOUDY    59  54  83 VRB3      29.62F
$$

NYZ005>009-017-018-044>046-055-056-252000-
CENTRAL


CITY           SKY/WX    TMP DP  RH WIND       PRES   REMARKS
FULTON         LGT RAIN  43  37  79 W15G22    29.48R
SYRACUSE       RAIN      43  43 100 W21G28    29.49R FOG
ROME           TSTM      56  52  86 SW13G24   29.45S FOG
ELMIRA         LGT RAIN  47  41  80 W17G24    29.47R
BINGHAMTON     CLOUDY    53  52  96 S8        29.42F
MONTICELLO     PTSUNNY  N/A N/A N/A S22       29.52F
$$

NYZ026>034-041>043-087-252000-
NORTH


CITY           SKY/WX    TMP DP  RH WIND       PRES   REMARKS
WATERTOWN      LGT RAIN  41  41 100 SW20G26   29.46R FOG
FORT DRUM      NOT AVBL
OGDENSBURG     RAIN      50  49  97 W7        29.36R
MASSENA        LGT RAIN  49  47  93 W12G23    29.37R
SARANAC LAKE   PTSUNNY   60  51  72 S17G26    29.35F
PLATTSBURGH    CLOUDY    63  52  67 S13G25    29.38F
$$

NYZ001>004-010>016-019>021-085-252000-
WEST


CITY           SKY/WX    TMP DP  RH WIND       PRES   REMARKS
NIAGARA FALLS  CLOUDY    48  33  56 W30G39    29.50S
BUFFALO        CLOUDY    43  32  65 SW21G32   29.53R
DUNKIRK        CLOUDY    39  32  76 SW25G37   29.59R WCI  28
JAMESTOWN      CLOUDY    37  30  75 W15G22    29.54S WCI  28
WELLSVILLE     LGT RAIN  41  37  86 W7        29.52S
ROCHESTER      LGT RAIN  43  37  79 W22G28    29.53R
PENN YAN       RAIN      43  36  76 SW16G25   29.49R
$$

             KEY
       WCI = WIND CHILL INDEX
       VSB = VISIBILITY
       HX  = HEAT INDEX
$$




USA.gov is the U.S. government's official web portal to all federal, state and local government web resources and services.